Location: Brunsen
(51.8651°N, 9.8610°E)
Time: 08:26:30
(UTC+00:00)

COBE dewar cap - Visible Passes

Search period start: 07 October 2024 00:00
Search period end: 17 October 2024 00:00
Orbit: 876 x 881 km, 98.9° (Epoch: 06 October)

Date Brightness Start Highest point End Pass type
(mag) Time Alt. Az. Time Alt. Az. Time Alt. Az.
08 Oct ? 18:35:33 10° W 18:36:53 11° W 18:38:12 10° WNW visible
09 Oct ? 18:31:12 10° WSW 18:33:06 12° W 18:35:00 10° WNW visible
10 Oct ? 18:27:00 10° WSW 18:29:20 13° W 18:31:40 10° WNW visible
11 Oct ? 05:01:48 10° NNE 05:07:04 38° E 05:12:18 10° SSE visible
11 Oct ? 18:22:52 10° WSW 18:25:33 13° W 18:28:14 10° NW visible
12 Oct ? 04:58:09 10° NNE 05:03:21 36° E 05:08:30 10° SSE visible
12 Oct ? 18:18:48 10° WSW 18:21:47 14° W 18:24:46 10° NW visible
13 Oct ? 04:54:29 10° NNE 04:59:36 34° E 05:04:41 10° SSE visible
13 Oct ? 18:14:46 10° WSW 18:18:01 15° W 18:21:16 10° NW visible
14 Oct ? 04:50:50 10° NNE 04:55:52 32° E 05:00:52 10° SSE visible
14 Oct ? 18:10:47 10° SW 18:14:14 16° W 18:17:44 10° NW visible
15 Oct ? 04:47:10 10° NNE 04:52:07 30° E 04:57:02 10° SSE visible
15 Oct ? 18:06:48 10° SW 18:10:29 18° W 18:14:10 10° NW visible
16 Oct ? 04:43:32 10° NE 04:48:22 28° E 04:53:11 10° SSE visible
16 Oct ? 18:02:51 10° SW 18:06:43 19° W 18:10:36 10° NW visible
